When you browse on this site, cookies collect data to enhance your experience and personalize the content and advertising you see.
Visit our Privacy Policy to learn more. By continuing to use the site, you agree to this use of cookies and data.
  • In Romania
  • List of Countries
  • For 7 days
  • Water Temperature
  • Satellite Maps
  • Weather Map
  • Weather Widgets
  • user-avatar
    Login

    Hourly Weather Ashtarak

    Today, 17 June, Monday

    Time Temperature Precipitation Wind Pressure Humidity
    00:00 +20°C° 0.3 mm 2 mps 657 mmHg 56%
    01:00 +20°C° 0 mm 2 mps 656 mmHg 57%
    02:00 +20°C° 0 mm 1 mps 656 mmHg 58%
    03:00 +19°C° 0 mm 2 mps 656 mmHg 56%
    04:00 +21°C° 0 mm 1 mps 656 mmHg 56%
    05:00 +21°C° 0 mm 1 mps 656 mmHg 57%
    06:00 +22°C° 0 mm 1 mps 657 mmHg 58%
    07:00 +24°C° 0.1 mm 1 mps 657 mmHg 53%
    08:00 +25°C° 0.1 mm 1 mps 657 mmHg 48%
    09:00 +27°C° 0 mm 1 mps 658 mmHg 42%
    10:00 +28°C° 0.1 mm 1 mps 658 mmHg 39%
    11:00 +30°C° 0.1 mm 1 mps 658 mmHg 35%
    12:00 +31°C° 0.1 mm 1 mps 658 mmHg 32%
    13:00 +29°C° 0.1 mm 2 mps 657 mmHg 36%
    14:00 +28°C° 0.1 mm 3 mps 657 mmHg 41%
    15:00 +27°C° 0.1 mm 4 mps 656 mmHg 46%
    16:00 +26°C° 0.1 mm 3 mps 656 mmHg 48%
    17:00 +26°C° 0.1 mm 2 mps 656 mmHg 50%
    18:00 +25°C° 0.1 mm 1 mps 657 mmHg 52%
    19:00 +24°C° 0.1 mm 1 mps 657 mmHg 55%
    20:00 +22°C° 0.1 mm 1 mps 657 mmHg 59%
    21:00 +21°C° 0.1 mm 1 mps 657 mmHg 62%
    22:00 +21°C° 0.1 mm 1 mps 657 mmHg 64%
    23:00 +20°C° 0.1 mm 1 mps 657 mmHg 66%

    Tomorrow, 18 June, Tuesday

    Time Temperature Precipitation Wind Pressure Humidity
    00:00 +20°C° 0.1 mm 1 mps 657 mmHg 68%
    01:00 +19°C° 0 mm 1 mps 657 mmHg 68%
    02:00 +19°C° 0 mm 1 mps 656 mmHg 68%
    03:00 +18°C° 0 mm 1 mps 656 mmHg 68%
    04:00 +19°C° 0 mm 1 mps 656 mmHg 66%
    05:00 +20°C° 0 mm 1 mps 656 mmHg 64%
    06:00 +21°C° 0 mm 1 mps 657 mmHg 62%
    07:00 +22°C° 0.1 mm 1 mps 657 mmHg 58%
    08:00 +24°C° 0.1 mm 1 mps 657 mmHg 53%
    09:00 +25°C° 0.1 mm 2 mps 658 mmHg 48%
    10:00 +27°C° 0 mm 2 mps 658 mmHg 43%
    11:00 +28°C° 0 mm 2 mps 657 mmHg 38%
    12:00 +29°C° 0 mm 2 mps 657 mmHg 34%
    13:00 +30°C° 0 mm 2 mps 657 mmHg 32%
    14:00 +30°C° 0 mm 2 mps 657 mmHg 31%
    15:00 +30°C° 0 mm 2 mps 657 mmHg 30%
    16:00 +29°C° 0 mm 2 mps 657 mmHg 33%
    17:00 +29°C° 0 mm 2 mps 657 mmHg 37%
    18:00 +28°C° 0 mm 1 mps 657 mmHg 40%
    19:00 +26°C° 0.3 mm 2 mps 656 mmHg 46%
    20:00 +24°C° 0.3 mm 2 mps 656 mmHg 52%
    21:00 +20°C° 0.3 mm 3 mps 656 mmHg 58%
    22:00 +20°C° 0.1 mm 3 mps 656 mmHg 59%
    23:00 +19°C° 0.1 mm 2 mps 656 mmHg 61%

    Day after tomorrow, 19 June, Wednesday

    Time Temperature Precipitation Wind Pressure Humidity
    00:00 +19°C° 0.1 mm 2 mps 656 mmHg 63%
    01:00 +18°C° 0 mm 2 mps 656 mmHg 64%
    02:00 +18°C° 0 mm 2 mps 656 mmHg 65%
    03:00 +19°C° 0 mm 1 mps 656 mmHg 66%
    04:00 +19°C° 0 mm 1 mps 656 mmHg 65%
    05:00 +20°C° 0 mm 1 mps 656 mmHg 64%
    06:00 +21°C° 0 mm 1 mps 656 mmHg 64%
    07:00 +22°C° 0.1 mm 1 mps 657 mmHg 58%
    08:00 +24°C° 0.1 mm 1 mps 657 mmHg 52%
    09:00 +26°C° 0.1 mm 1 mps 657 mmHg 46%
    10:00 +27°C° 0.2 mm 1 mps 657 mmHg 43%
    11:00 +28°C° 0.2 mm 2 mps 657 mmHg 40%
    12:00 +29°C° 0.2 mm 2 mps 657 mmHg 37%
    13:00 +29°C° 0.2 mm 2 mps 657 mmHg 35%
    14:00 +30°C° 0.2 mm 1 mps 657 mmHg 33%
    15:00 +30°C° 0.2 mm 1 mps 657 mmHg 32%
    16:00 +29°C° 0.1 mm 2 mps 657 mmHg 36%
    17:00 +29°C° 0.1 mm 3 mps 657 mmHg 40%
    18:00 +28°C° 0.1 mm 4 mps 657 mmHg 44%
    19:00 +26°C° 0 mm 3 mps 657 mmHg 47%
    20:00 +24°C° 0 mm 3 mps 657 mmHg 50%
    21:00 +21°C° 0 mm 3 mps 657 mmHg 52%
    22:00 +21°C° 0 mm 3 mps 656 mmHg 54%
    23:00 +20°C° 0 mm 2 mps 656 mmHg 55%

    20 June, Thursday

    Time Temperature Precipitation Wind Pressure Humidity
    00:00 +19°C° 0 mm 2 mps 656 mmHg 57%
    01:00 +19°C° 0 mm 2 mps 656 mmHg 58%
    02:00 +19°C° 0 mm 2 mps 656 mmHg 60%
    03:00 +18°C° 0 mm 2 mps 655 mmHg 62%
    04:00 +19°C° 0 mm 2 mps 656 mmHg 61%
    05:00 +21°C° 0 mm 1 mps 656 mmHg 60%
    06:00 +21°C° 0 mm 1 mps 656 mmHg 60%
    07:00 +23°C° 0.1 mm 1 mps 656 mmHg 55%
    08:00 +25°C° 0.1 mm 1 mps 657 mmHg 51%
    09:00 +26°C° 0.1 mm 1 mps 657 mmHg 46%
    10:00 +27°C° 0.4 mm 2 mps 657 mmHg 43%
    11:00 +28°C° 0.4 mm 2 mps 657 mmHg 40%
    12:00 +29°C° 0.4 mm 2 mps 657 mmHg 37%
    13:00 +30°C° 0.3 mm 3 mps 656 mmHg 35%
    14:00 +31°C° 0.3 mm 3 mps 656 mmHg 33%
    15:00 +31°C° 0.3 mm 3 mps 656 mmHg 31%
    16:00 +30°C° 0.1 mm 3 mps 656 mmHg 36%
    17:00 +29°C° 0.1 mm 3 mps 655 mmHg 40%
    18:00 +28°C° 0.1 mm 3 mps 655 mmHg 45%
    19:00 +26°C° 0.4 mm 3 mps 655 mmHg 52%
    20:00 +24°C° 0.4 mm 3 mps 655 mmHg 59%
    21:00 +20°C° 0.4 mm 3 mps 655 mmHg 66%
    22:00 +20°C° 0.1 mm 3 mps 655 mmHg 66%
    23:00 +20°C° 0.1 mm 2 mps 655 mmHg 66%

    21 June, Friday

    Time Temperature Precipitation Wind Pressure Humidity
    00:00 +19°C° 0.1 mm 2 mps 655 mmHg 66%
    01:00 +19°C° 0.3 mm 2 mps 655 mmHg 68%
    02:00 +18°C° 0.3 mm 2 mps 655 mmHg 69%
    03:00 +18°C° 0.3 mm 2 mps 655 mmHg 71%
    04:00 +20°C° 0.2 mm 1 mps 655 mmHg 70%
    05:00 +20°C° 0.2 mm 1 mps 655 mmHg 69%
    06:00 +21°C° 0.2 mm 1 mps 655 mmHg 68%
    07:00 +22°C° 0.2 mm 1 mps 656 mmHg 63%
    08:00 +24°C° 0.2 mm 1 mps 656 mmHg 59%
    09:00 +25°C° 0.2 mm 1 mps 656 mmHg 54%
    10:00 +26°C° 0.7 mm 2 mps 656 mmHg 50%
    11:00 +28°C° 0.7 mm 2 mps 656 mmHg 46%
    12:00 +29°C° 0.7 mm 2 mps 656 mmHg 42%
    13:00 +29°C° 0.5 mm 2 mps 656 mmHg 41%
    14:00 +30°C° 0.5 mm 2 mps 656 mmHg 39%
    15:00 +30°C° 0.5 mm 2 mps 656 mmHg 38%
    16:00 +29°C° 0.4 mm 3 mps 656 mmHg 42%
    17:00 +29°C° 0.4 mm 3 mps 656 mmHg 45%
    18:00 +28°C° 0.4 mm 4 mps 656 mmHg 49%
    19:00 +26°C° 0.2 mm 4 mps 656 mmHg 53%
    20:00 +23°C° 0.2 mm 4 mps 656 mmHg 57%
    21:00 +21°C° 0.2 mm 4 mps 656 mmHg 62%
    22:00 +20°C° 0.1 mm 3 mps 656 mmHg 64%
    23:00 +20°C° 0.1 mm 3 mps 656 mmHg 67%

    22 June, Saturday

    Time Temperature Precipitation Wind Pressure Humidity
    00:00 +19°C° 0.1 mm 2 mps 656 mmHg 69%
    01:00 +19°C° 0 mm 2 mps 656 mmHg 70%
    02:00 +18°C° 0 mm 2 mps 656 mmHg 70%
    03:00 +18°C° 0 mm 2 mps 656 mmHg 71%
    04:00 +19°C° 0 mm 2 mps 656 mmHg 70%
    05:00 +20°C° 0 mm 1 mps 657 mmHg 68%
    06:00 +21°C° 0 mm 1 mps 657 mmHg 67%
    07:00 +23°C° 0.2 mm 1 mps 657 mmHg 62%
    08:00 +24°C° 0.2 mm 1 mps 658 mmHg 57%
    09:00 +26°C° 0.2 mm 1 mps 658 mmHg 52%
    10:00 +27°C° 0.6 mm 2 mps 658 mmHg 49%
    11:00 +28°C° 0.6 mm 2 mps 658 mmHg 45%
    12:00 +29°C° 0.6 mm 2 mps 658 mmHg 42%
    13:00 +30°C° 0.5 mm 2 mps 658 mmHg 41%
    14:00 +30°C° 0.5 mm 2 mps 658 mmHg 39%
    15:00 +31°C° 0.5 mm 2 mps 658 mmHg 38%
    16:00 +30°C° 0.4 mm 3 mps 658 mmHg 41%
    17:00 +30°C° 0.4 mm 3 mps 658 mmHg 44%
    18:00 +29°C° 0.4 mm 4 mps 658 mmHg 47%
    19:00 +27°C° 0.2 mm 4 mps 658 mmHg 51%
    20:00 +25°C° 0.2 mm 4 mps 658 mmHg 54%
    21:00 +24°C° 0.2 mm 3 mps 658 mmHg 57%
    22:00 +22°C° 0.5 mm 3 mps 658 mmHg 62%
    23:00 +21°C° 0.5 mm 2 mps 658 mmHg 66%
    Show more